Погода в Сергиевом Посаде

Россия / Московская область     56°18′55″N   38°08′09″E
темп.,
°C
ветер,
м/с
пор.,
м/с
влажн.,
%
обл.,
%
осадки,
мм/ч
давл.,
гПа
погр.,
м
4 марта, чт
чт400:00−1зюз51294100 0.1 1005742
03:00+1зюз61396100 0.4 1002939
06:00+1з71597100 1.6 9981112
09:000зсз71496100 2.0 9981129
12:000сз5106790 0.4 9991168
15:000сз477077 0.4 10001262
18:00−4сз2488100 0.0 1000103
21:00−8ссз239582 0.1 100233
5 марта, пт
пт500:00−10сз22940 0.0 100322
03:00−10зсз22950 0.0 100421
06:00−10з229744 0.0 100529
09:00−7зсз259463 0.1 1006246
12:00−5сз4684100 0.2 1007815
15:00−4сз4676100 0.5 10091053
18:00−7зсз368797 0.3 1010149
21:00−10зсз239149 0.3 101354
6 марта, сб
сб600:00−11сз37940 0.0 1014140
03:00−13с239522 0.0 101654
06:00−16ссз23900 0.0 101659
09:00−13сз25870 0.0 1017221
12:00−8сз24780 0.0 1017625
15:00−7з34712 0.0 10161013
18:00−10зюз238525 0.0 101544
21:00−11юз3118940 0.0 1014301
7 марта, вс
вс700:00−9юз5129063 0.0 1011456
03:00−8юз7149082 0.1 1006906
06:00−6юз71592100 1.3 10011115
09:00−5юз81592100 2.3 9961128
12:00−3юз71393100 1.8 9931107
15:00−5ссз61091100 3.5 992546
18:00−7сз3785100 0.3 993208
21:00−9юз41287100 0.4 995544
8 марта, пн
пн800:00−10з5128498 0.4 995540
03:00−10з4118999 0.4 996525
06:00−11сз51191100 0.1 998641
09:00−10сз51089100 0.2 1001680
12:00−9зсз598398 0.0 1004861
15:00−8сз588198 0.1 10061026
18:00−10сз3992100 0.1 1009510
21:00−13ссз4109293 0.2 1012555